When you browse on this site, cookies collect data to enhance your experience and personalize the content and advertising you see.
Visit our Privacy Policy to learn more. By continuing to use the site, you agree to this use of cookies and data.

Stündliche Wetter Donskie Ozerki

Heute, 9 Juli, Donnerstag

Zeit Temperatur Niederschläge Wind Luftdruck Luftfeuchtigkeit
00:00 +20°C° 0.8 mm 2 m/S 740 mmHg 96%
01:00 +19°C° 1.4 mm 3 m/S 740 mmHg 97%
02:00 +18°C° 1.4 mm 4 m/S 741 mmHg 97%
03:00 +18°C° 1.4 mm 4 m/S 741 mmHg 97%
04:00 +17°C° 1.5 mm 4 m/S 741 mmHg 96%
05:00 +15°C° 1.5 mm 5 m/S 741 mmHg 96%
06:00 +15°C° 1.5 mm 5 m/S 742 mmHg 95%
07:00 +15°C° 0.1 mm 5 m/S 742 mmHg 93%
08:00 +15°C° 0.1 mm 6 m/S 743 mmHg 91%
09:00 +15°C° 0.1 mm 6 m/S 743 mmHg 89%
10:00 +16°C° 0 mm 6 m/S 744 mmHg 85%
11:00 +17°C° 0 mm 5 m/S 744 mmHg 81%
12:00 +19°C° 0 mm 5 m/S 745 mmHg 77%
13:00 +20°C° 0 mm 5 m/S 745 mmHg 75%
14:00 +21°C° 0 mm 5 m/S 745 mmHg 72%
15:00 +21°C° 0 mm 5 m/S 745 mmHg 69%
16:00 +21°C° 0 mm 4 m/S 745 mmHg 71%
17:00 +21°C° 0 mm 4 m/S 746 mmHg 72%
18:00 +21°C° 0 mm 3 m/S 746 mmHg 73%
19:00 +19°C° 0 mm 3 m/S 746 mmHg 78%
20:00 +18°C° 0 mm 3 m/S 746 mmHg 82%
21:00 +16°C° 0 mm 3 m/S 746 mmHg 86%
22:00 +16°C° 0 mm 3 m/S 747 mmHg 88%
23:00 +14°C° 0 mm 3 m/S 747 mmHg 89%

Morgen, 10 Juli, Freitag

Zeit Temperatur Niederschläge Wind Luftdruck Luftfeuchtigkeit
00:00 +13°C° 0 mm 3 m/S 747 mmHg 90%
01:00 +13°C° 0 mm 3 m/S 748 mmHg 91%
02:00 +12°C° 0 mm 3 m/S 748 mmHg 92%
03:00 +12°C° 0 mm 3 m/S 748 mmHg 93%
04:00 +12°C° 0 mm 3 m/S 749 mmHg 92%
05:00 +13°C° 0 mm 3 m/S 749 mmHg 90%
06:00 +13°C° 0 mm 3 m/S 749 mmHg 89%
07:00 +14°C° 0 mm 3 m/S 750 mmHg 84%
08:00 +17°C° 0 mm 3 m/S 750 mmHg 79%
09:00 +18°C° 0 mm 3 m/S 750 mmHg 74%
10:00 +19°C° 0 mm 3 m/S 750 mmHg 70%
11:00 +20°C° 0 mm 3 m/S 751 mmHg 65%
12:00 +21°C° 0 mm 3 m/S 751 mmHg 61%
13:00 +21°C° 0 mm 3 m/S 751 mmHg 60%
14:00 +21°C° 0 mm 3 m/S 751 mmHg 60%
15:00 +22°C° 0 mm 3 m/S 751 mmHg 59%
16:00 +21°C° 0 mm 3 m/S 751 mmHg 61%
17:00 +21°C° 0 mm 2 m/S 751 mmHg 64%
18:00 +21°C° 0 mm 2 m/S 751 mmHg 67%
19:00 +19°C° 0 mm 2 m/S 751 mmHg 70%
20:00 +19°C° 0 mm 1 m/S 751 mmHg 73%
21:00 +16°C° 0 mm 1 m/S 751 mmHg 77%
22:00 +16°C° 0 mm 1 m/S 752 mmHg 78%
23:00 +15°C° 0 mm 1 m/S 752 mmHg 79%

übermorgen, 11 Juli, Samstag

Zeit Temperatur Niederschläge Wind Luftdruck Luftfeuchtigkeit
00:00 +15°C° 0 mm 1 m/S 752 mmHg 81%
01:00 +15°C° 0 mm 1 m/S 752 mmHg 82%
02:00 +14°C° 0 mm 2 m/S 752 mmHg 84%
03:00 +14°C° 0 mm 2 m/S 752 mmHg 86%
04:00 +15°C° 0 mm 2 m/S 752 mmHg 86%
05:00 +15°C° 0 mm 2 m/S 752 mmHg 86%
06:00 +16°C° 0 mm 2 m/S 753 mmHg 86%
07:00 +17°C° 0 mm 2 m/S 753 mmHg 81%
08:00 +19°C° 0 mm 2 m/S 753 mmHg 76%
09:00 +21°C° 0 mm 2 m/S 753 mmHg 72%
10:00 +21°C° 0 mm 2 m/S 753 mmHg 68%
11:00 +23°C° 0 mm 2 m/S 753 mmHg 65%
12:00 +24°C° 0 mm 3 m/S 753 mmHg 62%
13:00 +25°C° 0 mm 2 m/S 752 mmHg 61%
14:00 +25°C° 0 mm 2 m/S 752 mmHg 59%
15:00 +26°C° 0 mm 2 m/S 752 mmHg 58%
16:00 +26°C° 0 mm 2 m/S 752 mmHg 61%
17:00 +25°C° 0 mm 1 m/S 751 mmHg 63%
18:00 +25°C° 0 mm 1 m/S 751 mmHg 65%
19:00 +24°C° 0 mm 1 m/S 751 mmHg 68%
20:00 +22°C° 0 mm 1 m/S 751 mmHg 71%
21:00 +20°C° 0 mm 1 m/S 751 mmHg 75%
22:00 +20°C° 0 mm 1 m/S 751 mmHg 75%
23:00 +19°C° 0 mm 1 m/S 751 mmHg 76%

12 Juli, Sonntag

Zeit Temperatur Niederschläge Wind Luftdruck Luftfeuchtigkeit
00:00 +18°C° 0 mm 1 m/S 751 mmHg 77%
01:00 +18°C° 0 mm 1 m/S 751 mmHg 77%
02:00 +18°C° 0 mm 1 m/S 751 mmHg 77%
03:00 +16°C° 0 mm 1 m/S 751 mmHg 76%
04:00 +18°C° 0 mm 1 m/S 750 mmHg 77%
05:00 +18°C° 0 mm 1 m/S 750 mmHg 78%
06:00 +18°C° 0 mm 1 m/S 750 mmHg 79%
07:00 +20°C° 0 mm 1 m/S 750 mmHg 74%
08:00 +21°C° 0 mm 1 m/S 750 mmHg 70%
09:00 +23°C° 0 mm 1 m/S 750 mmHg 66%
10:00 +24°C° 0 mm 1 m/S 749 mmHg 63%
11:00 +25°C° 0 mm 2 m/S 749 mmHg 60%
12:00 +26°C° 0 mm 2 m/S 749 mmHg 57%
13:00 +27°C° 0 mm 2 m/S 748 mmHg 58%
14:00 +27°C° 0 mm 2 m/S 748 mmHg 59%
15:00 +28°C° 0 mm 2 m/S 748 mmHg 60%
16:00 +28°C° 0 mm 2 m/S 747 mmHg 65%
17:00 +27°C° 0 mm 2 m/S 747 mmHg 69%
18:00 +27°C° 0 mm 2 m/S 746 mmHg 74%
19:00 +26°C° 0.4 mm 3 m/S 746 mmHg 79%
20:00 +24°C° 0.4 mm 3 m/S 746 mmHg 85%
21:00 +22°C° 0.4 mm 3 m/S 745 mmHg 90%
22:00 +21°C° 0.4 mm 3 m/S 745 mmHg 92%
23:00 +21°C° 0.4 mm 3 m/S 745 mmHg 93%

13 Juli, Montag

Zeit Temperatur Niederschläge Wind Luftdruck Luftfeuchtigkeit
00:00 +20°C° 0.4 mm 3 m/S 745 mmHg 95%
01:00 +20°C° 0.2 mm 3 m/S 744 mmHg 95%
02:00 +20°C° 0.2 mm 2 m/S 744 mmHg 94%
03:00 +21°C° 0.2 mm 2 m/S 743 mmHg 94%
04:00 +21°C° 0.1 mm 3 m/S 743 mmHg 93%
05:00 +20°C° 0.1 mm 3 m/S 743 mmHg 93%
06:00 +20°C° 0.1 mm 4 m/S 742 mmHg 92%
07:00 +22°C° 0 mm 4 m/S 742 mmHg 89%
08:00 +23°C° 0 mm 4 m/S 742 mmHg 87%
09:00 +25°C° 0 mm 4 m/S 742 mmHg 84%
10:00 +26°C° 0.1 mm 4 m/S 741 mmHg 81%
11:00 +27°C° 0.1 mm 5 m/S 741 mmHg 78%
12:00 +28°C° 0.1 mm 5 m/S 741 mmHg 75%
13:00 +27°C° 1.7 mm 5 m/S 740 mmHg 76%
14:00 +26°C° 1.7 mm 6 m/S 740 mmHg 78%
15:00 +26°C° 1.7 mm 6 m/S 740 mmHg 79%
16:00 +25°C° 1.2 mm 5 m/S 739 mmHg 82%
17:00 +23°C° 1.2 mm 4 m/S 739 mmHg 85%
18:00 +22°C° 1.2 mm 3 m/S 738 mmHg 87%
19:00 +22°C° 1.2 mm 3 m/S 738 mmHg 89%
20:00 +21°C° 1.2 mm 3 m/S 738 mmHg 91%
21:00 +21°C° 1.2 mm 3 m/S 738 mmHg 93%
22:00 +20°C° 0.4 mm 3 m/S 737 mmHg 93%
23:00 +20°C° 0.4 mm 3 m/S 737 mmHg 94%

14 Juli, Dienstag

Zeit Temperatur Niederschläge Wind Luftdruck Luftfeuchtigkeit
00:00 +20°C° 0.4 mm 3 m/S 737 mmHg 94%
01:00 +20°C° 0.6 mm 4 m/S 737 mmHg 95%
02:00 +20°C° 0.6 mm 4 m/S 737 mmHg 96%
03:00 +19°C° 0.6 mm 5 m/S 737 mmHg 97%
04:00 +19°C° 0 mm 5 m/S 737 mmHg 95%
05:00 +19°C° 0 mm 5 m/S 738 mmHg 94%
06:00 +19°C° 0 mm 5 m/S 738 mmHg 93%
07:00 +19°C° 0 mm 5 m/S 738 mmHg 92%
08:00 +17°C° 0 mm 5 m/S 739 mmHg 91%
09:00 +17°C° 0 mm 5 m/S 739 mmHg 91%
10:00 +17°C° 0 mm 5 m/S 739 mmHg 89%
11:00 +17°C° 0 mm 6 m/S 740 mmHg 87%
12:00 +17°C° 0 mm 6 m/S 740 mmHg 85%
13:00 +17°C° 0.1 mm 6 m/S 740 mmHg 83%
14:00 +19°C° 0.1 mm 6 m/S 740 mmHg 80%
15:00 +18°C° 0.1 mm 7 m/S 741 mmHg 77%
16:00 +18°C° 0.1 mm 7 m/S 741 mmHg 78%
17:00 +18°C° 0.1 mm 7 m/S 741 mmHg 78%
18:00 +17°C° 0.1 mm 7 m/S 741 mmHg 79%
19:00 +16°C° 0 mm 6 m/S 741 mmHg 80%
20:00 +15°C° 0 mm 6 m/S 741 mmHg 81%
21:00 +14°C° 0 mm 5 m/S 741 mmHg 83%
22:00 +14°C° 0 mm 5 m/S 741 mmHg 84%
23:00 +13°C° 0 mm 5 m/S 741 mmHg 85%
Mehr zeigen